McConnell AFB, KS

3:48 AM CST on December 08, 2016 (GMT -0600)
McConnell Air Force Base

Weather History for KIAB - May, 2013

Change the Weather History Date:

Thursday, May 23, 2013

  Actual Average Record
Temperature  
Mean Temperature 63 °F -  
Max Temperature 72 °F 76 °F 140 °F (1999)
Min Temperature 55 °F 56 °F 44 °F (2001)
Degree Days  
Heating Degree Days 2    
Growing Degree Days 13 (Base 50)    
Moisture  
Dew Point 56 °F    
Average Humidity 77    
Maximum Humidity 95    
Minimum Humidity 62    
Precipitation  
Precipitation 0.00 in - - ()
Sea Level Pressure  
Sea Level Pressure 30.09 in    
Wind  
Wind Speed 9 mph (East)    
Max Wind Speed 16 mph    
Max Gust Speed 21 mph    
Visibility 10 miles    
Events      
Averages and records for this station are not official NWS values.
T = Trace of Precipitation, MM = Missing Value Source: NWS Daily Summary

Daily Weather History Graph

Daily Weather History Graph

Search for Another Location

Airport or City:

Trip Planner

Search our weather history database for the weather conditions in past years. The results will help you decide how hot, cold, wet, or windy it might be!

Date:

Astronomy

May. 23, 2013 Rise Set
Actual Time 6:13 AM CDT 8:38 PM CDT
Civil Twilight 5:43 AM CDT 9:08 PM CDT
Nautical Twilight 5:06 AM CDT 9:45 PM CDT
Astronomical Twilight 4:25 AM CDT 10:26 PM CDT
Moon 7:13 PM CDT (5/23) 4:57 AM CDT (5/23)
Length of Visible Light 15h 25m
Length of Day
14h 25m
Waxing Gibbous, 97% of the Moon is Illuminated
May 23
Waxing Gibbous
May 24
Full
May 31
Last Quarter
Jun 8
New
Jun 16
First Quarter

Hourly Weather History & Observations

Time (CDT) Temp. Dew Point Humidity Pressure Visibility Wind Dir Wind Speed Gust Speed Precip Events Conditions
12:58 AM 63.0 °F 56.7 °F 80% 29.96 in 10.0 mi ESE 4.6 mph - N/A   Clear
1:58 AM 62.6 °F 56.5 °F 80% 29.98 in 10.0 mi East 6.9 mph - N/A   Partly Cloudy
2:58 AM 61.7 °F 57.6 °F 86% 29.99 in 10.0 mi ENE 6.9 mph - N/A   Clear
3:58 AM 58.3 °F 55.0 °F 89% 30.02 in 10.0 mi ENE 11.5 mph - N/A   Clear
4:58 AM 56.1 °F 54.7 °F 95% 30.04 in 10.0 mi NE 12.7 mph - N/A   Clear
5:58 AM 55.8 °F 54.3 °F 95% 30.06 in 10.0 mi NE 13.8 mph - N/A   Clear
6:58 AM 55.6 °F 54.1 °F 95% 30.09 in 10.0 mi NE 12.7 mph - N/A   Clear
7:58 AM 57.0 °F 53.4 °F 88% 30.06 in 10.0 mi NE 16.1 mph - N/A   Clear
8:58 AM 59.4 °F 53.2 °F 80% 30.11 in 10.0 mi ENE 16.1 mph - N/A   Clear
9:58 AM 61.0 °F 52.5 °F 74% 30.15 in 10.0 mi NE 10.4 mph - N/A   Partly Cloudy
10:58 AM 60.1 °F 52.9 °F 77% 30.13 in 10.0 mi ENE 10.4 mph - N/A   Scattered Clouds
11:58 AM 60.8 °F 53.4 °F 77% 30.14 in 10.0 mi East 10.4 mph - N/A   Scattered Clouds
12:58 PM 63.3 °F 54.5 °F 73% 30.15 in 10.0 mi East 10.4 mph 17.3 mph N/A   Partly Cloudy
1:58 PM 68.4 °F 55.9 °F 64% 30.14 in 10.0 mi ENE 8.1 mph - N/A   Scattered Clouds
2:58 PM 70.9 °F 57.4 °F 62% 30.12 in 10.0 mi ENE 12.7 mph 20.7 mph N/A   Partly Cloudy
3:58 PM 70.5 °F 57.0 °F 62% 30.13 in 10.0 mi ESE 3.5 mph - N/A   Scattered Clouds
4:58 PM 71.2 °F 57.9 °F 63% 30.13 in 10.0 mi ESE 3.5 mph - N/A   Scattered Clouds
5:58 PM 71.8 °F 58.5 °F 63% 30.10 in 10.0 mi ENE 15.0 mph - N/A   Clear
6:58 PM 71.1 °F 57.9 °F 63% 30.09 in 10.0 mi East 10.4 mph - N/A   Clear
7:58 PM 69.8 °F 57.6 °F 65% 30.09 in 10.0 mi East 8.1 mph - N/A   Clear
8:58 PM 68.0 °F 58.1 °F 71% 30.11 in 10.0 mi East 5.8 mph - N/A   Clear
9:58 PM 65.8 °F 58.1 °F 76% 30.11 in 10.0 mi ESE 4.6 mph - N/A   Clear
10:58 PM 64.8 °F 58.3 °F 79% 30.17 in 10.0 mi East 4.6 mph - N/A   Partly Cloudy
11:58 PM 63.7 °F 59.2 °F 85% 30.17 in 10.0 mi East 8.1 mph - N/A   Partly Cloudy